STARLINK-34423

Last updated on Thu Jul 03 2025 00:02:07 GMT+0000 (Coordinated Universal Time)

1 64460U 25130Y 25183.58335648 -.00020228 00000+0 -13411-3 0 9990 2 64460 53.1565 179.7201 0001246 92.5821 53.1226 15.74194820 3524
UTC large
Height (km)
Speed (km/s)
/
Latitude / Longitude
Inclination (degrees)
Orbital Period (minutes)
Azimuth
Elevation
Range (km)
Doppler Factor

Next 0 passes for location: London (51.5072 / 0.1276)

Sorry there are no passes over London.